Location: Zagreb
(45.8000°N, 16.0000°E)
Time: 02:43:56
(UTC+02:00)

ISS - Visible Passes

Search period start: 22 October 2017 00:00
Search period end: 31 October 2017 23:00
Orbit: 401 x 408 km, 51.6° (Epoch: 22 October)

Date Brightness Start Highest point End Pass type
(mag) Time Alt. Az. Time Alt. Az. Time Alt. Az.
29 Oct -0.6 05:13:01 10° SSE 05:14:14 12° SE 05:15:26 10° ESE visible
30 Oct -2.6 05:54:42 10° SW 05:57:48 42° SE 06:00:55 10° ENE visible
31 Oct -1.7 05:02:46 10° SSW 05:05:29 24° SE 05:08:12 10° E visible
